time,readable_time,acceleration,acceleration_x,acceleration_y,acceleration_z,battery,humidity,identifier,mac,measurement_sequence_number,movement_counter,pressure,temperature,tx_power,dev-id
1549411219540,2019-02-06T00:00:19.539999Z,1054.40125189607,224,-315,981,2953,21,,,,,1011.47,25.9,,EE:B4:42:EE:C1:16
1549411226060,2019-02-06T00:00:26.059999Z,1054.102936149976,224,-314,981,2959,21,,,,,1011.46,25.9,,EE:B4:42:EE:C1:16
1549411235096,2019-02-06T00:00:35.095999Z,1055.8432648835717,225,-316,982,2965,21,,,,,1011.46,25.9,,EE:B4:42:EE:C1:16
1549411241119,2019-02-06T00:00:41.118999Z,1053.3854944890784,225,-314,980,2971,21,,,,,1011.46,25.9,,EE:B4:42:EE:C1:16
1549411247155,2019-02-06T00:00:47.154999Z,1055.7978026118449,226,-312,983,2959,21,,,,,1011.46,25.9,,EE:B4:42:EE:C1:16
1549411253180,2019-02-06T00:00:53.180000Z,1060.637544121459,230,-316,986,2959,21,,,,,1011.46,25.9,,EE:B4:42:EE:C1:16
1549411259209,2019-02-06T00:00:59.209000Z,1051.9990494292283,223,-317,978,2959,21,,,,,1011.47,25.9,,EE:B4:42:EE:C1:16
1549411265237,2019-02-06T00:01:05.236999Z,1058.3458791907303,228,-316,984,2953,21,,,,,1011.46,25.9,,EE:B4:42:EE:C1:16
1549411272273,2019-02-06T00:01:12.273000Z,1052.5060569896973,228,-312,979,2959,21,,,,,1011.45,25.9,,EE:B4:42:EE:C1:16
1549411278286,2019-02-06T00:01:18.286000Z,1054.0303600940535,228,-314,980,2959,21,,,,,1011.46,25.9,,EE:B4:42:EE:C1:16
1549411284293,2019-02-06T00:01:24.292999Z,1057.7424072050812,225,-313,985,2959,21,,,,,1011.46,25.9,,EE:B4:42:EE:C1:16
1549411290329,2019-02-06T00:01:30.328999Z,1052.8846090621707,227,-314,979,2959,21,,,,,1011.45,25.9,,EE:B4:42:EE:C1:16
1549411296343,2019-02-06T00:01:36.342999Z,1056.3564739234573,226,-317,982,2959,21,,,,,1011.45,25.9,,EE:B4:42:EE:C1:16
1549411302389,2019-02-06T00:01:42.388999Z,1056.4866302987464,228,-316,982,2959,21,,,,,1011.45,25.9,,EE:B4:42:EE:C1:16
1549411308429,2019-02-06T00:01:48.428999Z,1053.993358612852,229,-310,981,2971,21,,,,,1011.46,25.9,,EE:B4:42:EE:C1:16
1549411314459,2019-02-06T00:01:54.459000Z,1049.572293841639,223,-312,977,2971,21,,,,,1011.47,25.9,,EE:B4:42:EE:C1:16
1549411321460,2019-02-06T00:02:01.460000Z,1055.460089250181,226,-314,982,2959,21,,,,,1011.47,25.9,,EE:B4:42:EE:C1:16
1549411328529,2019-02-06T00:02:08.529000Z,1056.6882227033668,226,-315,983,2959,21,,,,,1011.44,25.9,,EE:B4:42:EE:C1:16
1549411334545,2019-02-06T00:02:14.545000Z,1059.9080148767628,228,-315,986,2959,21,,,,,1011.43,25.9,,EE:B4:42:EE:C1:16
1549411341579,2019-02-06T00:02:21.578999Z,1055.3913965918048,223,-319,981,2959,21,,,,,1011.44,25.9,,EE:B4:42:EE:C1:16
1549411347610,2019-02-06T00:02:27.609999Z,1052.8746364121419,224,-313,980,2953,21,,,,,1011.45,25.9,,EE:B4:42:EE:C1:16
1549411353635,2019-02-06T00:02:33.634999Z,1054.0170776605094,222,-312,982,2965,21,,,,,1011.44,25.9,,EE:B4:42:EE:C1:16
1549411359669,2019-02-06T00:02:39.668999Z,1055.000473933543,224,-317,981,2965,21,,,,,1011.44,25.9,,EE:B4:42:EE:C1:16
1549411365680,2019-02-06T00:02:45.680000Z,1060.1136731501956,226,-314,987,2953,21,,,,,1011.44,25.9,,EE:B4:42:EE:C1:16
1549411371710,2019-02-06T00:02:51.710000Z,1053.1723505675602,224,-314,980,2971,21,,,,,1011.43,25.9,,EE:B4:42:EE:C1:16
1549411377727,2019-02-06T00:02:57.726999Z,1049.6651847136782,225,-314,976,2953,21,,,,,1011.42,25.9,,EE:B4:42:EE:C1:16
1549411383760,2019-02-06T00:03:03.759999Z,1055.1198984001771,223,-315,982,2959,21,,,,,1011.43,25.9,,EE:B4:42:EE:C1:16
1549411389808,2019-02-06T00:03:09.808000Z,1052.2418923422504,224,-314,979,2953,21,,,,,1011.44,25.9,,EE:B4:42:EE:C1:16
1549411395800,2019-02-06T00:03:15.799999Z,1053.898002654906,226,-315,980,2953,21,,,,,1011.43,25.9,,EE:B4:42:EE:C1:16
1549411401859,2019-02-06T00:03:21.858999Z,1053.3854944890784,225,-314,980,2959,21,,,,,1011.43,25.9,,EE:B4:42:EE:C1:16
1549411407899,2019-02-06T00:03:27.898999Z,1057.2861485898698,226,-317,983,2959,21,,,,,1011.43,25.9,,EE:B4:42:EE:C1:16
1549411413920,2019-02-06T00:03:33.920000Z,1053.6555414365741,225,-318,979,2959,21,,,,,1011.43,25.89,,EE:B4:42:EE:C1:16
1549411419949,2019-02-06T00:03:39.948999Z,1055.460089250181,226,-314,982,2953,21,,,,,1011.43,25.9,,EE:B4:42:EE:C1:16
1549411425967,2019-02-06T00:03:45.967000Z,1052.9406441010813,226,-318,978,2965,21,,,,,1011.43,25.9,,EE:B4:42:EE:C1:16
1549411431990,2019-02-06T00:03:51.990000Z,1055.4558256980724,223,-313,983,2953,21,,,,,1011.43,25.9,,EE:B4:42:EE:C1:16
1549411438049,2019-02-06T00:03:58.049000Z,1057.7906220041848,224,-317,984,2953,21,,,,,1011.43,25.9,,EE:B4:42:EE:C1:16
1549411444070,2019-02-06T00:04:04.069999Z,1053.0854666170262,222,-312,981,2959,21,,,,,1011.44,25.9,,EE:B4:42:EE:C1:16
1549411450100,2019-02-06T00:04:10.099999Z,1055.228885123981,228,-318,980,2953,21,,,,,1011.43,25.9,,EE:B4:42:EE:C1:16
1549411456113,2019-02-06T00:04:16.112999Z,1054.31589194131,225,-314,981,2965,21,,,,,1011.43,25.9,,EE:B4:42:EE:C1:16
1549411462175,2019-02-06T00:04:22.174999Z,1054.9981042636996,221,-316,982,2965,21,,,,,1011.43,25.9,,EE:B4:42:EE:C1:16
1549411468209,2019-02-06T00:04:28.209000Z,1054.9132665769257,225,-316,981,2959,21,,,,,1011.43,25.9,,EE:B4:42:EE:C1:16
1549411475217,2019-02-06T00:04:35.217000Z,1051.3981167949655,223,-315,978,2959,21,,,,,1011.43,25.9,,EE:B4:42:EE:C1:16
1549411481258,2019-02-06T00:04:41.257999Z,1051.9938212746308,227,-311,979,2953,21,,,,,1011.42,25.9,,EE:B4:42:EE:C1:16
1549411487290,2019-02-06T00:04:47.289999Z,1056.6049403632371,227,-314,983,2965,21,,,,,1011.43,25.9,,EE:B4:42:EE:C1:16
1549411493319,2019-02-06T00:04:53.319000Z,1055.3416508410915,227,-316,981,2965,21,,,,,1011.44,25.9,,EE:B4:42:EE:C1:16
1549411499380,2019-02-06T00:04:59.380000Z,1056.7615625106735,228,-320,981,2965,21,,,,,1011.43,25.9,,EE:B4:42:EE:C1:16
1549411505385,2019-02-06T00:05:05.384999Z,1050.9966698329733,227,-317,976,2959,21,,,,,1011.43,25.9,,EE:B4:42:EE:C1:16
1549411511423,2019-02-06T00:05:11.423000Z,1057.2010215659081,227,-316,983,2959,21,,,,,1011.43,25.9,,EE:B4:42:EE:C1:16
1549411523459,2019-02-06T00:05:23.459000Z,1051.3981167949655,223,-315,978,2953,21,,,,,1011.44,25.9,,EE:B4:42:EE:C1:16
1549411529500,2019-02-06T00:05:29.500000Z,1052.7174359722555,222,-317,979,2971,21,,,,,1011.43,25.9,,EE:B4:42:EE:C1:16
1549411535529,2019-02-06T00:05:35.529000Z,1053.805484897474,224,-313,981,2959,21,,,,,1011.43,25.9,,EE:B4:42:EE:C1:16
1549411541559,2019-02-06T00:05:41.559000Z,1055.1270065731424,226,-316,981,2965,21,,,,,1011.43,25.9,,EE:B4:42:EE:C1:16
1549411547589,2019-02-06T00:05:47.588999Z,1056.8637565930624,228,-311,984,2959,21,,,,,1011.43,25.9,,EE:B4:42:EE:C1:16
1549411553624,2019-02-06T00:05:53.624000Z,1049.5132204979602,223,-318,975,2959,21,,,,,1011.43,25.9,,EE:B4:42:EE:C1:16
1549411559669,2019-02-06T00:05:59.668999Z,1055.2582622277828,228,-315,981,2959,21,,,,,1011.42,25.9,,EE:B4:42:EE:C1:16
1549411565688,2019-02-06T00:06:05.687999Z,1055.0336487524935,224,-314,982,2959,21,,,,,1011.42,25.9,,EE:B4:42:EE:C1:16
1549411571719,2019-02-06T00:06:11.719000Z,1053.9359563085416,226,-312,981,2959,21,,,,,1011.41,25.9,,EE:B4:42:EE:C1:16
1549411577720,2019-02-06T00:06:17.720000Z,1054.5297530179032,226,-314,981,2965,21,,,,,1011.42,25.9,,EE:B4:42:EE:C1:16
1549411583749,2019-02-06T00:06:23.749000Z,1054.736459974718,224,-313,982,2959,21,,,,,1011.42,25.9,,EE:B4:42:EE:C1:16
1549411589784,2019-02-06T00:06:29.783999Z,1056.8396283258876,231,-315,982,2953,21,,,,,1011.41,25.9,,EE:B4:42:EE:C1:16
1549411595812,2019-02-06T00:06:35.812000Z,1057.2800007566586,223,-316,984,2959,21,,,,,1011.41,25.9,,EE:B4:42:EE:C1:16
1549411601880,2019-02-06T00:06:41.880000Z,1053.3541664606448,225,-317,979,2959,21,,,,,1011.42,25.9,,EE:B4:42:EE:C1:16
1549411607879,2019-02-06T00:06:47.878999Z,1056.4340963827322,226,-311,984,2971,21,,,,,1011.42,25.9,,EE:B4:42:EE:C1:16
1549411613909,2019-02-06T00:06:53.908999Z,1051.7875260716871,222,-317,978,2953,21,,,,,1011.42,25.9,,EE:B4:42:EE:C1:16
1549411619920,2019-02-06T00:06:59.920000Z,1057.6700808853393,229,-313,984,2971,21,,,,,1011.41,25.9,,EE:B4:42:EE:C1:16
1549411625959,2019-02-06T00:07:05.959000Z,1053.6555414365741,225,-318,979,2965,21,,,,,1011.4,25.9,,EE:B4:42:EE:C1:16
1549411631979,2019-02-06T00:07:11.979000Z,1056.4866302987464,228,-316,982,2959,21,,,,,1011.4,25.9,,EE:B4:42:EE:C1:16
1549411638029,2019-02-06T00:07:18.029000Z,1055.1004691497394,226,-319,980,2959,21,,,,,1011.4,25.9,,EE:B4:42:EE:C1:16
1549411644059,2019-02-06T00:07:24.059000Z,1049.2368655360904,220,-313,977,2959,21,,,,,1011.41,25.9,,EE:B4:42:EE:C1:16
1549411650080,2019-02-06T00:07:30.079999Z,1053.2587526339385,223,-315,980,2959,21,,,,,1011.41,25.9,,EE:B4:42:EE:C1:16
1549411656110,2019-02-06T00:07:36.109999Z,1059.0547672334988,224,-315,986,2959,21,,,,,1011.41,25.9,,EE:B4:42:EE:C1:16
1549411662169,2019-02-06T00:07:42.168999Z,1054.744518829086,227,-314,981,2959,21,,,,,1011.41,25.9,,EE:B4:42:EE:C1:16
1549411668189,2019-02-06T00:07:48.188999Z,1052.0294672679088,223,-314,979,2953,21,,,,,1011.39,25.9,,EE:B4:42:EE:C1:16
1549411682270,2019-02-06T00:08:02.269999Z,1054.0185007863952,225,-313,981,2959,21,,,,,1011.4,25.9,,EE:B4:42:EE:C1:16
1549411688299,2019-02-06T00:08:08.299000Z,1053.4372311628254,221,-317,980,2965,21,,,,,1011.4,25.9,,EE:B4:42:EE:C1:16
1549411694329,2019-02-06T00:08:14.328999Z,1053.8908861926836,223,-314,981,2959,21,,,,,1011.4,25.9,,EE:B4:42:EE:C1:16
1549411700360,2019-02-06T00:08:20.359999Z,1055.1198984001771,223,-315,982,2965,21,,,,,1011.42,25.9,,EE:B4:42:EE:C1:16
1549411706378,2019-02-06T00:08:26.378000Z,1053.5293066640338,220,-318,980,2965,21,,,,,1011.41,25.9,,EE:B4:42:EE:C1:16
1549411714440,2019-02-06T00:08:34.440000Z,1054.400777693188,221,-314,982,2953,21,,,,,1011.41,25.9,,EE:B4:42:EE:C1:16
1549411721456,2019-02-06T00:08:41.456000Z,1056.443562146128,225,-318,982,2959,21,,,,,1011.4,25.9,,EE:B4:42:EE:C1:16
1549411727472,2019-02-06T00:08:47.471999Z,1052.9681856542486,226,-315,979,2953,21,,,,,1011.39,25.9,,EE:B4:42:EE:C1:16
1549411733520,2019-02-06T00:08:53.519999Z,1055.0763005584004,224,-311,983,2965,21,,,,,1011.38,25.9,,EE:B4:42:EE:C1:16
1549411739548,2019-02-06T00:08:59.548000Z,1054.102936149976,224,-314,981,2959,21,,,,,1011.38,25.9,,EE:B4:42:EE:C1:16
1549411752568,2019-02-06T00:09:12.568000Z,1057.2388566449872,227,-313,984,2971,21,,,,,1011.39,25.91,,EE:B4:42:EE:C1:16
1549411758617,2019-02-06T00:09:18.617000Z,1051.5250829152865,225,-314,978,2959,21,,,,,1011.39,25.91,,EE:B4:42:EE:C1:16
1549411764679,2019-02-06T00:09:24.678999Z,1056.8112414239356,225,-313,984,2947,21,,,,,1011.4,25.91,,EE:B4:42:EE:C1:16
1549411771709,2019-02-06T00:09:31.709000Z,1052.4552247007946,225,-314,979,2959,21,,,,,1011.4,25.91,,EE:B4:42:EE:C1:16
1549411779739,2019-02-06T00:09:39.739000Z,1056.3493740235756,223,-316,983,2959,21,,,,,1011.38,25.91,,EE:B4:42:EE:C1:16
1549411792809,2019-02-06T00:09:52.809000Z,1051.5769111196764,221,-317,978,2959,21,,,,,1011.38,25.9,,EE:B4:42:EE:C1:16
1549411798839,2019-02-06T00:09:58.838999Z,1051.9548469397344,227,-314,978,2965,21,,,,,1011.38,25.9,,EE:B4:42:EE:C1:16
1549411804870,2019-02-06T00:10:04.869999Z,1055.461984156701,220,-312,984,2959,21,,,,,1011.38,25.9,,EE:B4:42:EE:C1:16
1549411810907,2019-02-06T00:10:10.907000Z,1053.4709298314785,224,-315,980,2971,21,,,,,1011.38,25.9,,EE:B4:42:EE:C1:16
1549411816946,2019-02-06T00:10:16.946000Z,1058.5490068957602,226,-315,985,2959,21,,,,,1011.39,25.9,,EE:B4:42:EE:C1:16
1549411822974,2019-02-06T00:10:22.973999Z,1052.1240421167079,225,-316,978,2959,21,,,,,1011.38,25.9,,EE:B4:42:EE:C1:16
1549411829019,2019-02-06T00:10:29.019000Z,1058.5490068957602,226,-315,985,2959,21,,,,,1011.39,25.9,,EE:B4:42:EE:C1:16
1549411835039,2019-02-06T00:10:35.039000Z,1057.0245976324297,226,-313,984,2971,21,,,,,1011.38,25.9,,EE:B4:42:EE:C1:16
1549411841040,2019-02-06T00:10:41.039999Z,1051.8730912044475,228,-313,978,2971,21,,,,,1011.38,25.9,,EE:B4:42:EE:C1:16
1549411847097,2019-02-06T00:10:47.096999Z,1053.2430868512738,226,-319,978,2959,21,,,,,1011.38,25.91,,EE:B4:42:EE:C1:16
1549411859179,2019-02-06T00:10:59.178999Z,1056.3029868366368,224,-312,984,2965,21,,,,,1011.39,25.91,,EE:B4:42:EE:C1:16
1549411866214,2019-02-06T00:11:06.213999Z,1054.9981042636996,221,-316,982,2959,21,,,,,1011.4,25.91,,EE:B4:42:EE:C1:16
1549411872220,2019-02-06T00:11:12.220000Z,1057.5013002356072,228,-310,985,2971,21,,,,,1011.4,25.91,,EE:B4:42:EE:C1:16
1549411879290,2019-02-06T00:11:19.289999Z,1054.886723776539,225,-319,980,2971,21,,,,,1011.39,25.91,,EE:B4:42:EE:C1:16
1549411885307,2019-02-06T00:11:25.306999Z,1054.7004314022063,224,-316,981,2965,21,,,,,1011.39,25.91,,EE:B4:42:EE:C1:16
1549411891330,2019-02-06T00:11:31.329999Z,1057.3211432672667,226,-314,984,2953,21,,,,,1011.4,25.91,,EE:B4:42:EE:C1:16
1549411899379,2019-02-06T00:11:39.378999Z,1052.424819167621,225,-317,978,2971,21,,,,,1011.4,25.91,,EE:B4:42:EE:C1:16
1549411905390,2019-02-06T00:11:45.390000Z,1055.1232155535201,220,-314,983,2971,21,,,,,1011.4,25.91,,EE:B4:42:EE:C1:16
1549411911440,2019-02-06T00:11:51.440000Z,1055.8432648835717,225,-316,982,2959,21,,,,,1011.39,25.91,,EE:B4:42:EE:C1:16
1549411923485,2019-02-06T00:12:03.484999Z,1058.2721767106987,222,-320,984,2959,21,,,,,1011.38,25.92,,EE:B4:42:EE:C1:16
1549411930499,2019-02-06T00:12:10.499000Z,1050.3123344986482,228,-314,976,2959,21,,,,,1011.38,25.91,,EE:B4:42:EE:C1:16
1549411937537,2019-02-06T00:12:17.536999Z,1053.6555414365741,225,-318,979,2953,21,,,,,1011.38,25.91,,EE:B4:42:EE:C1:16
1549411943575,2019-02-06T00:12:23.575000Z,1056.1387219489682,222,-316,983,2953,21,,,,,1011.4,25.92,,EE:B4:42:EE:C1:16
1549411949596,2019-02-06T00:12:29.595999Z,1052.7174359722555,222,-317,979,2953,21,,,,,1011.4,25.91,,EE:B4:42:EE:C1:16
1549411955649,2019-02-06T00:12:35.648999Z,1055.1270065731424,226,-316,981,2959,21,,,,,1011.41,25.91,,EE:B4:42:EE:C1:16
1549411961660,2019-02-06T00:12:41.660000Z,1056.1770684880448,225,-314,983,2959,21,,,,,1011.4,25.91,,EE:B4:42:EE:C1:16
1549411967690,2019-02-06T00:12:47.690000Z,1057.8005483076665,227,-318,983,2959,21,,,,,1011.4,25.92,,EE:B4:42:EE:C1:16
1549411973710,2019-02-06T00:12:53.710000Z,1055.7580215181886,226,-315,982,2953,21,,,,,1011.39,25.91,,EE:B4:42:EE:C1:16
1549411979750,2019-02-06T00:12:59.750000Z,1057.7022265269181,222,-315,985,2953,21,,,,,1011.39,25.91,,EE:B4:42:EE:C1:16
1549411985789,2019-02-06T00:13:05.789000Z,1055.3317014095617,224,-315,982,2959,21,,,,,1011.39,25.91,,EE:B4:42:EE:C1:16
1549411991819,2019-02-06T00:13:11.819000Z,1060.4951673628693,225,-316,987,2971,21,,,,,1011.38,25.91,,EE:B4:42:EE:C1:16
1549411998867,2019-02-06T00:13:18.867000Z,1052.4552247007946,225,-314,979,2965,21,,,,,1011.38,25.91,,EE:B4:42:EE:C1:16
1549412004880,2019-02-06T00:13:24.880000Z,1054.6022947063977,228,-319,979,2953,21,,,,,1011.39,25.91,,EE:B4:42:EE:C1:16
1549412010900,2019-02-06T00:13:30.900000Z,1056.830639222766,221,-319,983,2959,21,,,,,1011.39,25.92,,EE:B4:42:EE:C1:16
1549412016938,2019-02-06T00:13:36.937999Z,1052.0384973944633,226,-315,978,2953,21,,,,,1011.39,25.91,,EE:B4:42:EE:C1:16
1549412022990,2019-02-06T00:13:42.990000Z,1052.6390644470687,226,-317,978,2959,21,,,,,1011.39,25.91,,EE:B4:42:EE:C1:16
1549412029029,2019-02-06T00:13:49.029000Z,1056.7861656929465,228,-317,982,2959,21,,,,,1011.39,25.91,,EE:B4:42:EE:C1:16
1549412037060,2019-02-06T00:13:57.059999Z,1057.2861485898698,226,-317,983,2959,21,,,,,1011.4,25.91,,EE:B4:42:EE:C1:16
1549412044100,2019-02-06T00:14:04.099999Z,1051.9866919310339,224,-310,980,2953,21,,,,,1011.39,25.91,,EE:B4:42:EE:C1:16
1549412050139,2019-02-06T00:14:10.138999Z,1058.0902608000888,221,-317,985,2953,21,,,,,1011.39,25.91,,EE:B4:42:EE:C1:16
1549412056160,2019-02-06T00:14:16.160000Z,1053.0854666170262,222,-312,981,2971,21,,,,,1011.38,25.9,,EE:B4:42:EE:C1:16
1549412062179,2019-02-06T00:14:22.178999Z,1051.7314295959782,223,-313,979,2959,21,,,,,1011.39,25.9,,EE:B4:42:EE:C1:16
1549412068229,2019-02-06T00:14:28.229000Z,1054.497510665625,226,-317,980,2959,21,,,,,1011.4,25.9,,EE:B4:42:EE:C1:16
1549412075250,2019-02-06T00:14:35.250000Z,1054.40125189607,224,-315,981,2959,21,,,,,1011.4,25.9,,EE:B4:42:EE:C1:16
1549412081280,2019-02-06T00:14:41.279999Z,1049.6375564927162,225,-317,975,2971,21,,,,,1011.39,25.9,,EE:B4:42:EE:C1:16
1549412087320,2019-02-06T00:14:47.319999Z,1053.5933750740842,223,-313,981,2959,21,,,,,1011.39,25.9,,EE:B4:42:EE:C1:16
1549412094330,2019-02-06T00:14:54.329999Z,1051.069455364392,223,-317,977,2953,21,,,,,1011.38,25.9,,EE:B4:42:EE:C1:16
1549412100385,2019-02-06T00:15:00.384999Z,1056.1429827442873,225,-317,982,2953,21,,,,,1011.38,25.9,,EE:B4:42:EE:C1:16
1549412106400,2019-02-06T00:15:06.400000Z,1052.7910523935886,225,-312,980,2959,21,,,,,1011.38,25.9,,EE:B4:42:EE:C1:16
1549412112420,2019-02-06T00:15:12.420000Z,1058.0387516532653,225,-314,985,2965,21,,,,,1011.38,25.9,,EE:B4:42:EE:C1:16
1549412118479,2019-02-06T00:15:18.479000Z,1053.1723505675602,224,-314,980,2959,21,,,,,1011.38,25.9,,EE:B4:42:EE:C1:16
1549412124509,2019-02-06T00:15:24.509000Z,1055.3776575235995,227,-313,982,2959,21,,,,,1011.39,25.9,,EE:B4:42:EE:C1:16
1549412131536,2019-02-06T00:15:31.536000Z,1052.3008125056258,223,-318,978,2959,21,,,,,1011.38,25.89,,EE:B4:42:EE:C1:16
1549412138560,2019-02-06T00:15:38.559999Z,1055.6675613089567,224,-313,983,2959,21,,,,,1011.37,25.89,,EE:B4:42:EE:C1:16
1549412145600,2019-02-06T00:15:45.599999Z,1051.0818236464752,230,-312,977,2971,21,,,,,1011.37,25.89,,EE:B4:42:EE:C1:16
1549412151659,2019-02-06T00:15:51.658999Z,1055.5571988291304,228,-316,981,2959,21,,,,,1011.36,25.89,,EE:B4:42:EE:C1:16
1549412157686,2019-02-06T00:15:57.686000Z,1052.4951306300661,225,-311,980,2959,21,,,,,1011.38,25.89,,EE:B4:42:EE:C1:16
1549412163730,2019-02-06T00:16:03.730000Z,1056.4866302987464,228,-316,982,2959,21,,,,,1011.38,25.89,,EE:B4:42:EE:C1:16
1549412170755,2019-02-06T00:16:10.755000Z,1055.839949992422,222,-315,983,2965,21,,,,,1011.38,25.89,,EE:B4:42:EE:C1:16
1549412182807,2019-02-06T00:16:22.806999Z,1056.773391035183,225,-316,983,2965,21,,,,,1011.38,25.89,,EE:B4:42:EE:C1:16
1549412189830,2019-02-06T00:16:29.829999Z,1054.102936149976,224,-314,981,2959,21,,,,,1011.38,25.89,,EE:B4:42:EE:C1:16
1549412196869,2019-02-06T00:16:36.868999Z,1053.0474823102707,222,-315,980,2953,21,,,,,1011.38,25.89,,EE:B4:42:EE:C1:16
1549412203870,2019-02-06T00:16:43.869999Z,1054.4121585034952,227,-316,980,2953,21,,,,,1011.38,25.89,,EE:B4:42:EE:C1:16
1549412209940,2019-02-06T00:16:49.940000Z,1055.544409297875,225,-315,982,2959,21,,,,,1011.38,25.89,,EE:B4:42:EE:C1:16
1549412215969,2019-02-06T00:16:55.969000Z,1053.3503690605514,219,-315,981,2959,21,,,,,1011.38,25.89,,EE:B4:42:EE:C1:16
1549412222139,2019-02-06T00:17:02.138999Z,1057.192981437164,224,-315,984,2971,21,,,,,1011.39,25.9,,EE:B4:42:EE:C1:16
1549412229029,2019-02-06T00:17:09.029000Z,1051.656788120535,227,-313,978,2959,21,,,,,1011.39,25.9,,EE:B4:42:EE:C1:16
1549412235050,2019-02-06T00:17:15.049999Z,1054.31589194131,225,-314,981,2965,21,,,,,1011.39,25.9,,EE:B4:42:EE:C1:16
1549412241060,2019-02-06T00:17:21.059999Z,1057.036423213505,229,-314,983,2959,21,,,,,1011.39,25.9,,EE:B4:42:EE:C1:16
1549412247078,2019-02-06T00:17:27.078000Z,1056.986754883901,226,-316,983,2959,21,,,,,1011.39,25.9,,EE:B4:42:EE:C1:16
1549412253155,2019-02-06T00:17:33.154999Z,1053.8908861926836,223,-314,981,2959,21,,,,,1011.37,25.9,,EE:B4:42:EE:C1:16
1549412259176,2019-02-06T00:17:39.176000Z,1054.6141474491985,225,-315,981,2953,21,,,,,1011.37,25.9,,EE:B4:42:EE:C1:16
1549412265158,2019-02-06T00:17:45.157999Z,1053.5933750740842,223,-313,981,2953,21,,,,,1011.37,25.9,,EE:B4:42:EE:C1:16
1549412271190,2019-02-06T00:17:51.190000Z,1053.4695059658823,221,-314,981,2959,21,,,,,1011.37,25.9,,EE:B4:42:EE:C1:16
1549412277220,2019-02-06T00:17:57.220000Z,1056.2622780351478,224,-315,983,2953,21,,,,,1011.37,25.9,,EE:B4:42:EE:C1:16
1549412283240,2019-02-06T00:18:03.240000Z,1054.1973249823773,226,-316,980,2959,21,,,,,1011.37,25.89,,EE:B4:42:EE:C1:16
1549412289273,2019-02-06T00:18:09.273000Z,1052.2974864552325,220,-317,979,2953,21,,,,,1011.37,25.89,,EE:B4:42:EE:C1:16
1549412295297,2019-02-06T00:18:15.296999Z,1056.443562146128,225,-318,982,2965,21,,,,,1011.38,25.9,,EE:B4:42:EE:C1:16
1549412301310,2019-02-06T00:18:21.309999Z,1051.9253775815089,227,-317,977,2959,21,,,,,1011.37,25.9,,EE:B4:42:EE:C1:16
1549412307355,2019-02-06T00:18:27.355000Z,1054.2836430486816,225,-317,980,2959,21,,,,,1011.37,25.9,,EE:B4:42:EE:C1:16
1549412313390,2019-02-06T00:18:33.390000Z,1058.299579514232,222,-317,985,2965,21,,,,,1011.38,25.9,,EE:B4:42:EE:C1:16
1549412319400,2019-02-06T00:18:39.400000Z,1053.1723505675602,224,-314,980,2959,21,,,,,1011.37,25.9,,EE:B4:42:EE:C1:16
1549412331520,2019-02-06T00:18:51.519999Z,1057.2506798295285,223,-319,983,2959,20.5,,,,,1011.38,25.89,,EE:B4:42:EE:C1:16
1549412337510,2019-02-06T00:18:57.509999Z,1056.5987885664076,224,-313,984,2959,20.5,,,,,1011.37,25.89,,EE:B4:42:EE:C1:16
1549412343535,2019-02-06T00:19:03.535000Z,1054.102936149976,224,-314,981,2959,21,,,,,1011.38,25.89,,EE:B4:42:EE:C1:16
1549412349544,2019-02-06T00:19:09.543999Z,1053.8908861926836,223,-314,981,2953,21,,,,,1011.38,25.89,,EE:B4:42:EE:C1:16
1549412355579,2019-02-06T00:19:15.578999Z,1057.192981437164,224,-315,984,2953,21,,,,,1011.36,25.89,,EE:B4:42:EE:C1:16
1549412361592,2019-02-06T00:19:21.592000Z,1051.5198524041284,222,-313,979,2959,21,,,,,1011.35,25.89,,EE:B4:42:EE:C1:16
1549412367598,2019-02-06T00:19:27.598000Z,1056.3318607331694,226,-320,981,2965,21,,,,,1011.35,25.89,,EE:B4:42:EE:C1:16
1549412373647,2019-02-06T00:19:33.647000Z,1054.1128971794244,227,-315,980,2959,21,,,,,1011.35,25.89,,EE:B4:42:EE:C1:16
1549412379658,2019-02-06T00:19:39.657999Z,1055.7580215181886,226,-315,982,2959,21,,,,,1011.35,25.89,,EE:B4:42:EE:C1:16
1549412385670,2019-02-06T00:19:45.670000Z,1053.0536548533507,225,-316,979,2965,21,,,,,1011.35,25.89,,EE:B4:42:EE:C1:16
1549412391727,2019-02-06T00:19:51.726999Z,1052.669463791935,226,-314,979,2959,21,,,,,1011.35,25.89,,EE:B4:42:EE:C1:16
1549412397738,2019-02-06T00:19:57.737999Z,1055.3321751941423,221,-314,983,2959,21,,,,,1011.36,25.89,,EE:B4:42:EE:C1:16
1549412403801,2019-02-06T00:20:03.801000Z,1050.4679909449883,223,-315,977,2971,21,,,,,1011.35,25.89,,EE:B4:42:EE:C1:16
1549412409860,2019-02-06T00:20:09.859999Z,1053.9359563085416,226,-312,981,2959,21,,,,,1011.35,25.89,,EE:B4:42:EE:C1:16
1549412415870,2019-02-06T00:20:15.869999Z,1056.6882227033668,226,-315,983,2959,21,,,,,1011.35,25.89,,EE:B4:42:EE:C1:16
1549412422889,2019-02-06T00:20:22.888999Z,1057.0245976324297,226,-313,984,2959,21,,,,,1011.35,25.89,,EE:B4:42:EE:C1:16
1549412428914,2019-02-06T00:20:28.914000Z,1053.7703734685276,224,-316,980,2971,21,,,,,1011.35,25.89,,EE:B4:42:EE:C1:16
1549412436955,2019-02-06T00:20:36.954999Z,1053.5933750740842,223,-313,981,2959,21,,,,,1011.36,25.89,,EE:B4:42:EE:C1:16
1549412442998,2019-02-06T00:20:42.997999Z,1050.3813593167008,224,-314,977,2959,21,,,,,1011.34,25.89,,EE:B4:42:EE:C1:16
1549412449030,2019-02-06T00:20:49.029999Z,1054.9767769955886,224,-320,980,2959,21,,,,,1011.35,25.89,,EE:B4:42:EE:C1:16
1549412456060,2019-02-06T00:20:56.059999Z,1054.2770034483347,226,-310,982,2953,21,,,,,1011.35,25.89,,EE:B4:42:EE:C1:16
1549412462070,2019-02-06T00:21:02.069999Z,1053.3854944890784,225,-314,980,2953,21,,,,,1011.36,25.89,,EE:B4:42:EE:C1:16
1549412470090,2019-02-06T00:21:10.089999Z,1058.302886701156,225,-318,984,2953,21,,,,,1011.36,25.89,,EE:B4:42:EE:C1:16
1549412476129,2019-02-06T00:21:16.128999Z,1052.9601132046741,223,-314,980,2971,21,,,,,1011.35,25.89,,EE:B4:42:EE:C1:16
1549412482173,2019-02-06T00:21:22.173000Z,1052.928772519775,223,-317,979,2953,21,,,,,1011.35,25.89,,EE:B4:42:EE:C1:16
1549412488229,2019-02-06T00:21:28.229000Z,1055.3317014095617,224,-315,982,2959,21,,,,,1011.36,25.89,,EE:B4:42:EE:C1:16
1549412494260,2019-02-06T00:21:34.259999Z,1058.3364304416625,222,-314,986,2959,21,,,,,1011.36,25.89,,EE:B4:42:EE:C1:16
1549412500270,2019-02-06T00:21:40.269999Z,1055.1198984001771,223,-315,982,2959,21,,,,,1011.36,25.89,,EE:B4:42:EE:C1:16
1549412506309,2019-02-06T00:21:46.309000Z,1058.1016019267715,227,-319,983,2959,21,,,,,1011.37,25.89,,EE:B4:42:EE:C1:16
1549412513327,2019-02-06T00:21:53.326999Z,1055.3416508410915,227,-316,981,2959,21,,,,,1011.37,25.89,,EE:B4:42:EE:C1:16
1549412519365,2019-02-06T00:21:59.365000Z,1051.6468038272164,224,-312,979,2959,21,,,,,1011.37,25.89,,EE:B4:42:EE:C1:16